Year,Month,Day,Hour,Minute,Value (Times are PST for insolation in W/m^2)
2014,09,01,10,12,223.00
2014,09,01,10,13,223.00
2014,09,01,10,14,227.00
2014,09,01,10,15,218.00
2014,09,01,10,16,209.00
2014,09,01,10,17,200.00
2014,09,01,10,18,199.00
2014,09,01,10,19,202.00
2014,09,01,10,20,197.00
2014,09,01,10,21,190.00
2014,09,01,10,22,190.00
2014,09,01,10,23,202.00
2014,09,01,10,24,220.00
2014,09,01,10,25,220.00
2014,09,01,10,26,216.00
2014,09,01,10,27,209.00
2014,09,01,10,28,202.00
2014,09,01,10,29,193.00
2014,09,01,10,30,167.00
2014,09,01,10,31,155.00
2014,09,01,10,32,146.00
2014,09,01,10,33,139.00
2014,09,01,10,34,134.00
2014,09,01,10,35,132.00
2014,09,01,10,36,127.00
2014,09,01,10,37,125.00
2014,09,01,10,38,125.00
2014,09,01,10,39,125.00
2014,09,01,10,40,121.00
2014,09,01,10,41,116.00
2014,09,01,10,42,102.00
2014,09,01,10,43,97.00
2014,09,01,10,44,93.00
2014,09,01,10,45,91.00
2014,09,01,10,46,91.00
2014,09,01,10,47,93.00
2014,09,01,10,48,93.00
2014,09,01,10,49,95.00
2014,09,01,10,50,98.00
2014,09,01,10,51,105.00
2014,09,01,10,52,111.00
2014,09,01,10,53,120.00
2014,09,01,10,54,125.00
2014,09,01,10,55,134.00
2014,09,01,10,56,139.00
2014,09,01,10,57,142.00
2014,09,01,10,58,144.00
2014,09,01,10,59,149.00
2014,09,01,11,00,153.00
2014,09,01,11,01,160.00
2014,09,01,11,02,167.00
2014,09,01,11,03,172.00
2014,09,01,11,04,174.00
2014,09,01,11,05,169.00
2014,09,01,11,06,169.00
2014,09,01,11,07,163.00
2014,09,01,11,08,163.00
2014,09,01,11,09,163.00
2014,09,01,11,10,163.00
2014,09,01,11,11,167.00
2014,09,01,11,12,171.00
2014,09,01,11,13,171.00
2014,09,01,11,14,171.00
2014,09,01,11,15,165.00
2014,09,01,11,16,160.00
2014,09,01,11,17,155.00
2014,09,01,11,18,151.00
2014,09,01,11,19,151.00
2014,09,01,11,20,151.00
2014,09,01,11,21,151.00
2014,09,01,11,22,151.00
2014,09,01,11,23,156.00
2014,09,01,11,24,165.00
2014,09,01,11,25,174.00
2014,09,01,11,26,185.00
2014,09,01,11,27,192.00
2014,09,01,11,28,213.00
2014,09,01,11,29,223.00
2014,09,01,11,30,236.00
2014,09,01,11,31,246.00
2014,09,01,11,32,251.00
2014,09,01,11,33,257.00
2014,09,01,11,34,283.00
2014,09,01,11,35,285.00
2014,09,01,11,36,272.00
2014,09,01,11,37,260.00
2014,09,01,11,38,253.00
2014,09,01,11,39,251.00
2014,09,01,11,40,258.00
2014,09,01,11,41,260.00
2014,09,01,11,42,255.00
2014,09,01,11,43,248.00
2014,09,01,11,44,243.00
2014,09,01,11,45,237.00
2014,09,01,11,46,225.00
2014,09,01,11,47,232.00
2014,09,01,11,48,232.00
2014,09,01,11,49,239.00
2014,09,01,11,50,237.00
2014,09,01,11,51,232.00
2014,09,01,11,52,221.00
2014,09,01,11,53,220.00
2014,09,01,11,54,216.00
2014,09,01,11,55,218.00
2014,09,01,11,56,227.00
2014,09,01,11,57,236.00
2014,09,01,11,58,234.00
2014,09,01,11,59,229.00
2014,09,01,12,00,230.00
2014,09,01,12,01,248.00
2014,09,01,12,02,304.00
2014,09,01,12,03,304.00
2014,09,01,12,04,311.00
2014,09,01,12,05,297.00
2014,09,01,12,06,276.00
2014,09,01,12,07,251.00
2014,09,01,12,08,239.00
2014,09,01,12,09,250.00
2014,09,01,12,10,246.00
2014,09,01,12,11,253.00
2014,09,01,12,12,283.00
2014,09,01,12,13,359.00
2014,09,01,12,14,425.00
2014,09,01,12,15,504.00
2014,09,01,12,16,504.00
2014,09,01,12,17,846.00
2014,09,01,12,18,846.00
2014,09,01,12,19,596.00
2014,09,01,12,20,596.00
2014,09,01,12,21,404.00
2014,09,01,12,22,364.00
2014,09,01,12,23,346.00
2014,09,01,12,24,339.00
2014,09,01,12,25,327.00
2014,09,01,12,26,396.00
2014,09,01,12,27,297.00
2014,09,01,12,28,290.00
2014,09,01,12,29,294.00
2014,09,01,12,30,294.00
2014,09,01,12,31,288.00
2014,09,01,12,32,279.00
2014,09,01,12,33,278.00
2014,09,01,12,34,278.00
2014,09,01,12,35,274.00
2014,09,01,12,36,276.00
2014,09,01,12,37,285.00
2014,09,01,12,38,306.00
2014,09,01,12,39,394.00
2014,09,01,12,40,401.00
2014,09,01,12,41,397.00
2014,09,01,12,42,415.00
2014,09,01,12,43,448.00
2014,09,01,12,44,448.00
2014,09,01,12,45,424.00
2014,09,01,12,46,401.00
2014,09,01,12,47,397.00
2014,09,01,12,48,492.00
2014,09,01,12,49,392.00
2014,09,01,12,50,401.00
2014,09,01,12,51,369.00
2014,09,01,12,52,348.00
2014,09,01,12,53,348.00
2014,09,01,12,54,353.00
2014,09,01,12,55,360.00
2014,09,01,12,56,366.00
2014,09,01,12,57,380.00
2014,09,01,12,58,403.00
2014,09,01,12,59,434.00
2014,09,01,13,00,406.00
2014,09,01,13,01,396.00
2014,09,01,13,02,364.00
2014,09,01,13,03,364.00
2014,09,01,13,04,376.00
2014,09,01,13,05,381.00
2014,09,01,13,06,364.00
2014,09,01,13,07,343.00
2014,09,01,13,08,330.00
2014,09,01,13,09,332.00
2014,09,01,13,10,332.00
2014,09,01,13,11,329.00
2014,09,01,13,12,318.00
2014,09,01,13,13,311.00
2014,09,01,13,14,308.00
2014,09,01,13,15,308.00
2014,09,01,13,16,320.00
2014,09,01,13,17,343.00
2014,09,01,13,18,359.00
2014,09,01,13,19,357.00
2014,09,01,13,20,336.00
2014,09,01,13,21,318.00
2014,09,01,13,22,304.00
2014,09,01,13,23,295.00
2014,09,01,13,24,294.00
2014,09,01,13,25,306.00
2014,09,01,13,26,315.00
2014,09,01,13,27,320.00
2014,09,01,13,28,311.00
2014,09,01,13,29,313.00
2014,09,01,13,30,334.00
2014,09,01,13,31,315.00
2014,09,01,13,32,308.00
2014,09,01,13,33,315.00
2014,09,01,13,34,329.00
2014,09,01,13,35,350.00
2014,09,01,13,36,411.00
2014,09,01,13,37,322.00
2014,09,01,13,38,313.00
2014,09,01,13,39,315.00
2014,09,01,13,40,311.00
2014,09,01,13,41,329.00
2014,09,01,13,42,352.00
2014,09,01,13,43,359.00
2014,09,01,13,44,371.00
2014,09,01,13,45,388.00
2014,09,01,13,46,408.00
2014,09,01,13,47,454.00
2014,09,01,13,48,536.00
2014,09,01,13,49,475.00
2014,09,01,13,50,475.00
2014,09,01,13,51,475.00
2014,09,01,13,52,475.00
2014,09,01,13,53,475.00
2014,09,01,13,54,475.00
2014,09,01,13,55,475.00
2014,09,01,13,56,475.00
2014,09,01,13,57,373.00
2014,09,01,13,58,380.00
2014,09,01,13,59,380.00
2014,09,01,14,00,510.00
2014,09,01,14,01,510.00
2014,09,01,14,02,510.00
2014,09,01,14,03,510.00
2014,09,01,14,04,457.00
2014,09,01,14,05,457.00
2014,09,01,14,06,1055.00
2014,09,01,14,07,1060.00
2014,09,01,14,08,1060.00
2014,09,01,14,09,1060.00
2014,09,01,14,10,1060.00
2014,09,01,14,11,1060.00
2014,09,01,14,12,410.00
2014,09,01,14,13,348.00
2014,09,01,14,14,325.00
2014,09,01,14,15,309.00
2014,09,01,14,16,299.00
2014,09,01,14,17,301.00
2014,09,01,14,18,346.00
2014,09,01,14,19,387.00
2014,09,01,14,20,380.00
2014,09,01,14,21,352.00
2014,09,01,14,22,334.00
2014,09,01,14,23,316.00
2014,09,01,14,24,311.00
2014,09,01,14,25,311.00
2014,09,01,14,26,345.00
2014,09,01,14,27,411.00
2014,09,01,14,28,411.00
2014,09,01,14,29,608.00
2014,09,01,14,30,608.00
2014,09,01,14,31,608.00
2014,09,01,14,32,608.00
2014,09,01,14,33,608.00
2014,09,01,14,34,269.00
2014,09,01,14,35,271.00
2014,09,01,14,36,271.00
2014,09,01,14,37,290.00
2014,09,01,14,38,288.00
2014,09,01,14,39,299.00
2014,09,01,14,40,332.00
2014,09,01,14,41,429.00
2014,09,01,14,42,429.00
2014,09,01,14,43,429.00
2014,09,01,14,44,1063.00
2014,09,01,14,45,1062.00
2014,09,01,14,46,1062.00
2014,09,01,14,47,779.00
2014,09,01,14,48,526.00
2014,09,01,14,49,606.00
2014,09,01,14,50,663.00
2014,09,01,14,51,663.00
2014,09,01,14,52,425.00
2014,09,01,14,53,334.00
2014,09,01,14,54,334.00
2014,09,01,14,55,902.00
2014,09,01,14,56,865.00
2014,09,01,14,57,865.00
2014,09,01,14,58,543.00
2014,09,01,14,59,543.00
2014,09,01,15,00,543.00
2014,09,01,15,01,543.00
2014,09,01,15,02,719.00
2014,09,01,15,03,719.00
2014,09,01,15,04,719.00
2014,09,01,15,05,719.00
2014,09,01,15,06,842.00
2014,09,01,15,07,842.00
2014,09,01,15,08,570.00
2014,09,01,15,09,570.00
2014,09,01,15,10,570.00
2014,09,01,15,11,932.00
2014,09,01,15,12,932.00
2014,09,01,15,13,932.00
2014,09,01,15,14,504.00
2014,09,01,15,15,504.00
2014,09,01,15,16,404.00
2014,09,01,15,17,397.00
2014,09,01,15,18,392.00
2014,09,01,15,19,392.00
2014,09,01,15,20,392.00
2014,09,01,15,21,348.00
2014,09,01,15,22,352.00
2014,09,01,15,23,343.00
2014,09,01,15,24,345.00
2014,09,01,15,25,355.00
2014,09,01,15,26,366.00
2014,09,01,15,27,385.00
2014,09,01,15,28,420.00
2014,09,01,15,29,394.00
2014,09,01,15,30,417.00
2014,09,01,15,31,403.00
2014,09,01,15,32,417.00
2014,09,01,15,33,468.00
2014,09,01,15,34,441.00
2014,09,01,15,35,441.00
2014,09,01,15,36,919.00
2014,09,01,15,37,886.00
2014,09,01,15,38,879.00
2014,09,01,15,39,803.00
2014,09,01,15,40,900.00
2014,09,01,15,41,900.00
2014,09,01,15,42,895.00
2014,09,01,15,43,895.00
2014,09,01,15,44,895.00
2014,09,01,15,45,798.00
2014,09,01,15,46,777.00
2014,09,01,15,47,751.00
2014,09,01,15,48,729.00
2014,09,01,15,49,712.00
2014,09,01,15,50,664.00
2014,09,01,15,51,622.00
2014,09,01,15,52,684.00
2014,09,01,15,53,693.00
2014,09,01,15,54,684.00
2014,09,01,15,55,684.00
2014,09,01,15,56,689.00
2014,09,01,15,57,682.00
2014,09,01,15,58,680.00
2014,09,01,15,59,679.00
2014,09,01,16,00,684.00
2014,09,01,16,01,707.00
2014,09,01,16,02,707.00
2014,09,01,16,03,694.00
2014,09,01,16,04,694.00
2014,09,01,16,05,269.00
2014,09,01,16,06,257.00
2014,09,01,16,07,264.00
2014,09,01,16,08,313.00
2014,09,01,16,09,313.00
2014,09,01,16,10,241.00
2014,09,01,16,11,246.00
2014,09,01,16,12,248.00
2014,09,01,16,13,320.00
2014,09,01,16,14,260.00
2014,09,01,16,15,250.00
2014,09,01,16,16,260.00
2014,09,01,16,17,260.00
2014,09,01,16,18,260.00
2014,09,01,16,19,260.00
2014,09,01,16,20,227.00
2014,09,01,16,21,218.00
2014,09,01,16,22,221.00
2014,09,01,16,23,220.00
2014,09,01,16,24,227.00
2014,09,01,16,25,251.00
2014,09,01,16,26,221.00
2014,09,01,16,27,211.00
2014,09,01,16,28,207.00
2014,09,01,16,29,206.00
2014,09,01,16,30,202.00
2014,09,01,16,31,195.00
2014,09,01,16,32,195.00
2014,09,01,16,33,199.00
2014,09,01,16,34,193.00
2014,09,01,16,35,195.00
2014,09,01,16,36,204.00
2014,09,01,16,37,199.00
2014,09,01,16,38,183.00
2014,09,01,16,39,186.00
2014,09,01,16,40,176.00
2014,09,01,16,41,163.00
2014,09,01,16,42,160.00
2014,09,01,16,43,165.00
2014,09,01,16,44,160.00
2014,09,01,16,45,165.00
2014,09,01,16,46,171.00
2014,09,01,16,47,172.00
2014,09,01,16,48,172.00
2014,09,01,16,49,167.00
2014,09,01,16,50,156.00
2014,09,01,16,51,148.00
2014,09,01,16,52,146.00
2014,09,01,16,53,142.00
2014,09,01,16,54,141.00
2014,09,01,16,55,137.00
2014,09,01,16,56,134.00
2014,09,01,16,57,128.00
2014,09,01,16,58,123.00
2014,09,01,16,59,123.00
2014,09,01,17,00,123.00
2014,09,01,17,01,123.00
2014,09,01,17,02,134.00
2014,09,01,17,03,142.00
2014,09,01,17,04,142.00
2014,09,01,17,05,163.00
2014,09,01,17,06,176.00
2014,09,01,17,07,186.00
2014,09,01,17,08,204.00
2014,09,01,17,09,213.00
2014,09,01,17,10,218.00
2014,09,01,17,11,220.00
2014,09,01,17,12,218.00
2014,09,01,17,13,216.00
2014,09,01,17,14,211.00
2014,09,01,17,15,209.00
2014,09,01,17,16,207.00
2014,09,01,17,17,206.00
2014,09,01,17,18,206.00
2014,09,01,17,19,209.00
2014,09,01,17,20,211.00
2014,09,01,17,21,192.00
2014,09,01,17,22,192.00
2014,09,01,17,23,174.00
2014,09,01,17,24,171.00
2014,09,01,17,25,162.00
2014,09,01,17,26,142.00
2014,09,01,17,27,139.00
2014,09,01,17,28,137.00
2014,09,01,17,29,135.00
2014,09,01,17,30,141.00
2014,09,01,17,31,149.00
2014,09,01,17,32,178.00
2014,09,01,17,33,190.00
2014,09,01,17,34,195.00
2014,09,01,17,35,200.00
2014,09,01,17,36,202.00
2014,09,01,17,37,202.00
2014,09,01,17,38,199.00
2014,09,01,17,39,195.00
2014,09,01,17,40,186.00
2014,09,01,17,41,178.00
2014,09,01,17,42,172.00
2014,09,01,17,43,155.00
2014,09,01,17,44,144.00
2014,09,01,17,45,141.00
2014,09,01,17,46,141.00
2014,09,01,17,47,135.00
2014,09,01,17,48,118.00
2014,09,01,17,49,83.00
2014,09,01,17,50,83.00
2014,09,01,17,51,83.00
2014,09,01,17,52,83.00
2014,09,01,17,53,83.00
2014,09,01,17,54,83.00
2014,09,01,17,55,83.00
2014,09,01,17,56,83.00
2014,09,01,17,57,83.00
2014,09,01,17,58,83.00
2014,09,01,17,59,83.00
2014,09,01,18,16,149.00
2014,09,01,18,17,146.00
2014,09,01,18,18,146.00
2014,09,01,18,19,146.00
2014,09,01,18,20,144.00
2014,09,01,18,21,142.00
2014,09,01,18,22,134.00
2014,09,01,18,23,125.00
2014,09,01,18,24,118.00
2014,09,01,18,25,114.00
2014,09,01,18,26,111.00
2014,09,01,18,27,109.00
2014,09,01,18,28,93.00
2014,09,01,18,29,93.00
2014,09,01,18,30,93.00
2014,09,01,18,31,93.00
2014,09,01,18,32,93.00
2014,09,01,18,33,93.00
2014,09,01,18,34,93.00
2014,09,01,18,35,93.00
2014,09,01,18,36,93.00
2014,09,01,18,37,93.00
2014,09,01,18,38,93.00
